Regional Weather Roundup
Issued by NWS Upton, NY

Home | Current Version | Previous Version | Text Only | Print | Product List | Glossary On
Versions: 1 2 3 4 5 6 7 8 9 10 11 12 13 14 15 16 17 18 19 20 21 22 23 24 25 26 27 28 29 30 31 32 33 34 35 36 37 38 39 40 41 42 43 44 45 46 47 48 49 50
000
ASUS41 KOKX 312305
RWROKX
REGIONAL WEATHER ROUNDUP
NATIONAL WEATHER SERVICE NEW YORK NY
700 PM EDT THU JUL 31 2014

NOTE: "FAIR" INDICATES FEW OR NO CLOUDS BELOW 12,000 FEET WITH NO
SIGNIFICANT WEATHER AND/OR OBSTRUCTIONS TO VISIBILITY.

NYZ071-072-176-178-NJZ106-104-010000-
NEW YORK CITY METRO AREA


CITY           SKY/WX    TMP DP  RH WIND       PRES   REMARKS
CENTRAL PARK   PTSUNNY   77  63  61 MISG      30.12R
LAGUARDIA APRT MOSUNNY   80  61  52 S10G24    30.09R
KENNEDY INTL   MOSUNNY   77  66  68 S17       30.11R
NEWARK/LIBERTY PTSUNNY   81  63  54 S6        30.08R
BRNX BOT. GARD   N/A     77  63  61 SE3       30.10S
TETERBORO      SUNNY     82  62  50 SE9       30.07R
$$

NYZ177-179-078>081-010000-
LONG ISLAND NEW YORK

CITY           SKY/WX    TMP DP  RH WIND       PRES   REMARKS
FARMINGDALE    SUNNY     74  66  76 S15G22    30.12R
ISLIP          MOSUNNY   76  62  62 S12G20    30.11R
SHIRLEY        SUNNY     75  62  64 S13       30.13R
WESTHAMPTON    SUNNY     74  64  71 S8G18     30.15R
MONTAUK POINT    N/A     74  64  71 VRB7      30.15R
$$

NYZ052-065-067-010000-
HUDSON VALLEY

CITY           SKY/WX    TMP DP  RH WIND       PRES   REMARKS
WHITE PLAINS   MOSUNNY   75  63  66 S8        30.11R
NEWBURGH       MOSUNNY   79  61  53 W8        30.10R
MONTGOMERY     MOSUNNY   78  59  51 SW8       30.08R
POUGHKEEPSIE   SUNNY     78  61  55 CALM      30.07R
ALBANY         MOSUNNY   75  64  68 SE7       30.06S
$$

NJZ001-105-106-008-010-013-015-019>022-104-010000-
NEW JERSEY

CITY           SKY/WX    TMP DP  RH WIND       PRES   REMARKS
NEWARK/LIBERTY PTSUNNY   81  63  54 S6        30.08R
TETERBORO      SUNNY     82  62  50 SE9       30.07R
CALDWELL       MOSUNNY   80  56  43 SW3       30.09R
MORRISTOWN     PTSUNNY   82  57  42 W6        30.09R
SOMERVILLE     CLOUDY    77  66  68 CALM      30.07R
LINDEN         FAIR      84  58  40 W5        30.10R
SUSSEX         MOSUNNY   79  60  52 SW3       30.10R
ANDOVER          N/A     77  61  57 CALM      30.11R
TRENTON        MOSUNNY   81  60  48 SW5       30.08S
MILLVILLE      PTSUNNY   78  67  68 S8        30.11R
ATLANTIC CITY  MOSUNNY   77  65  66 S12       30.12R
WRIGHTSTOWN    SUNNY     81  62  53 SW10      30.07R
TOMS RIVER     MOSUNNY   79  64  61 S12       30.11R
BELMAR         PTSUNNY   79  64  61 S8        30.10S
$$

PAZ047>061-062-071-010000-
EASTERN PENNSYLVANIA

CITY           SKY/WX    TMP DP  RH WIND       PRES   REMARKS
PHILADELPHIA   PTSUNNY   84  59  42 SW10      30.09R
ALLENTOWN      MOSUNNY   77  60  55 NW5       30.10S
SCRANTON       SUNNY     78  55  44 SW8       30.10S
$$

CTZ002-004>006-009-010-012-RIZ004-006-007-MAZ004-011-015-010000-
SOUTHERN NEW ENGLAND
 IN CT

CITY           SKY/WX    TMP DP  RH WIND       PRES   REMARKS
BRADLEY INTL   MOSUNNY   79  58  48 SW10      30.08R
HARTFORD       MOSUNNY   77  58  51 S9G18     30.09R
DANBURY        MOSUNNY   76  59  55 S9        30.11R
WTRBRY/OXFORD  MOSUNNY   73  61  64 S8G17     30.14R
BRIDGEPORT     NOT AVBL
MERIDEN        SUNNY     77  58  51 S9G18     30.11R
NEW HAVEN      MOSUNNY   77  61  57 S8        30.12R
CHESTER        FAIR      75  63  64 S7        30.13R
GROTON         SUNNY     71  66  84 S6        30.13R
WILLIMANTIC    MOSUNNY   76  60  57 S14       30.12R

 IN RI

CITY           SKY/WX    TMP DP  RH WIND       PRES   REMARKS
PROVIDENCE     MOSUNNY   75  56  51 S13       30.13R
BLOCK ISLAND   SUNNY     73  64  73 S9        30.15R
WESTERLY       SUNNY     74  64  71 S8        30.14R

 IN MA

CITY           SKY/WX    TMP DP  RH WIND       PRES   REMARKS
BOSTON         MOSUNNY   76  57  51 S15       30.09R
WORCESTER      PTSUNNY   73  57  57 S9        30.12R
WESTFIELD      MOSUNNY   78  60  53 S10       30.08R
PROVINCETOWN   CLEAR     72  63  73 S10G16    30.13S
NANTUCKET      CLEAR     69  64  84 S7        30.16R
$$

ANZ330-335-338-340-345-350-353-355-010000-
COASTAL MARINE OBSERVATIONS


STATION/POSITION TIME  SKY/WX   TEMP    WIND        PRES    VSBY  WAVE
                                AIR SEA DIR/SP/G                  HT/PER
                 (UTC)          (F)     (DEG/KT/KT) (MB)    (MI)  (FT/S)
NY HARB ENTRANCE NOT AVBL
4S FIRE IS       NOT AVBL
23SW MTP         2300            74 72              1020.1          3/ 8
HUDSON CANYON    2300            74 76  190/  8/ 12 1020.8          3/ 8
EXECUTION ROCKS  2300            77 71  190/ 14/ 16   N/A
WESTERN LI SOUND 2300            76     170/ 14/ 17   N/A           1/ 2
CENTRAL LI SOUND 2300            74 73  200/ 12/ 16   N/A           2/ 2
EASTERN LI SOUND 2200            72 67  180/  8/ 10   N/A
ROBBINS REEF     2200            74     160/ 17/ 19   N/A
$$


>>>>>>>>>>>>>>>>>>>>>>>>>>>> KEY <<<<<<<<<<<<<<<<<<<<<<<<<<<
>                                                          <
>     SKY/WX - SKY CONDITION/PRESENT WEATHER               <
>     TMP    - TEMPERATURE IN FAHRENHEIT                   <
>     DP     - DEWPOINT IN FAHRENHEIT                      <
>     RH     - RELATIVE HUMIDITY IN PERCENT                <
>     WIND   - DIRECTION AND SPEED IN MPH                  <
>     PRES   - MEAN SEA LEVEL PRESSURE IN INCHES OF HG     <
>     WCI    - WIND CHILL INDEX                            <
>     VSB    - VISIBILITY IN MILES                         <
>     HX     - HEAT INDEX                                  <
>     TC     - TEMPERATURE IN CELSIUS                      <
>     VRB    - VARIABLE WIND DIRECTION                     <
>                                                          <
>>>>>>>>>>>>>>>>>>>>>>>>>>>> KEY <<<<<<<<<<<<<<<<<<<<<<<<<<<





USA.gov is the U.S. government's official web portal to all federal, state and local government web resources and services.